AirNav   ATP
 
 452 users online  

U30 Temple Bar Airport
Temple Bar, Arizona, USA

GOING TO TEMPLE BAR?


FAA INFORMATION EFFECTIVE 26 APRIL 2018

Location

FAA Identifier: U30
Lat/Long: 36-01-13.6000N / 114-20-05.7000W
36-01.226667N / 114-20.095000W
36.0204444 / -114.3349167
(estimated)
Elevation: 1549 ft. / 472.1 m (surveyed)
Variation: 14E (1985)
From city: 1 mile SW of TEMPLE BAR, AZ
Time zone: UTC -7 (year round; does not observe DST)
Zip code: 86443

Airport Operations

Airport use: Open to the public
Activation date: 08/1961
Control tower: no
ARTCC: LOS ANGELES CENTER
FSS: PRESCOTT FLIGHT SERVICE STATION
NOTAMs facility: PRC (NOTAM-D service available)
Attendance: UNATNDD
Wind indicator: yes
Segmented circle: yes

Airport Communications

CTAF/UNICOM: 122.8
  • CALL 122.8 FOR TRANSPORTATION.

Nearby radio navigation aids

VOR radial/distance  VOR name  Freq  Var
BLDr072/25.7BOULDER CITY VORTAC116.7015E

Airport Services

Parking: tiedowns
Airframe service: NONE
Powerplant service: NONE
Bottled oxygen: NONE
Bulk oxygen: NONE

Runway Information

Runway 18/36

Dimensions: 3500 x 50 ft. / 1067 x 15 m
Surface: asphalt, in fair condition
RY 18/36 GRASS GROWING THRU NMRS CRACKS ON RY.
Weight bearing capacity: 
Single wheel: 10.0
RUNWAY 18  RUNWAY 36
Latitude: 36-01.509333N36-00.945000N
Longitude: 114-20.021000W114-20.169000W
Gradient: 3.4%3.4%
Traffic pattern: rightleft
Markings: basic, in fair conditionbasic, in fair condition
Runway end identifier lights: nono
Obstructions: none
RWY 18 +2 FT. SCATTERED BRUSH 0 FT.-100FT. FROM THRESHOLD, 0B
120 ft. pline, 3000 ft. from runway, 23:1 slope to clear
RY 36 RISING TERRAIN BEGINS AT RY END AND CONTINUES FULL LENGTH OF APCH.

Airport Ownership and Management from official FAA records

Ownership: Publicly-owned
Owner: NATIONAL PARK SERVICE
601 NEVADA HWY
BOULDER CITY, NV 89005
Phone (702) 293-2011
ALTERNATE PHONE: 702-293-8998. (24 HR NATIONAL PARK SERVICE DISPATCH)
Manager: SCOTT TAYLOR
601 NEVADA HWY
BOULDER CITY, NV 89005
Phone (702) 293-2011

Airport Operational Statistics

Aircraft operations: avg 79/month *
74% transient general aviation
26% air taxi
* for 12-month period ending 18 April 2016

Additional Remarks

BE ALERT FOR VEHICULAR TRAFFIC ON RY.
AIRCRAFT RAMP IN FAILED CONDITION WITH RUTS DUE TO EROSION.
LANDING IS RECOMMENDED UPHILL TO THE SOUTH. DUE TO +2% UP SLOPE FROM RUNWAY 18 TO RUNWAY 36
DO NOT USE TIE DOWN AREA AS PARL TWY; BACK TAXI ON RY.
RY 36 TERRAIN RISES AT CONSTANT RATE ABOVE RY.
RY 18/36 20 FT BERM 180 FT WEST ALONG FULL LENGTH OF RY.
WILDLIFE ON & INVOF ARPT.
BE ALERT FOR LOOSE ROCK ON NORTH TURN-A-ROUND AND RY.

Instrument Procedures

There are no published instrument procedures at U30.

Some nearby airports with instrument procedures:

KBVU - Boulder City Municipal Airport (26 nm W)
KLSV - Nellis Air Force Base (36 nm W)
KHND - Henderson Executive Airport (39 nm W)
KLAS - Mc Carran International Airport (40 nm W)
KVGT - North Las Vegas Airport (43 nm W)
 
Loc | Ops | Rwys | IFR | FBO | Links
Com | Nav | Svcs | Stats | Notes

AirNav Hotels Sweepstakes
 
Area around U30 (Temple Bar Airport)
 
Road maps at: MapQuest Bing Google
 
Aerial photo
WARNING: Photo may not be current or correct
Aerial photo of U30 (Temple Bar Airport)
Photo by Jim Armstrong
Photo taken 15-Nov-2006

Do you have a better or more recent aerial photo of Temple Bar Airport that you would like to share? If so, please send us your photo.

 
Sectional chart

 
Airport distance calculator
Flying to Temple Bar Airport? Find the distance to fly.

From to U30

Sunrise and sunset
Times for 23-May-2018
 Local
(UTC-7)
 Zulu
(UTC)
Morning civil twilight04:5811:58
Sunrise05:2712:27
Sunset19:4102:41
Evening civil twilight20:1003:10

Current date and time
Zulu (UTC)  24-May-2018 06:20:07
Local (UTC-7)  23-May-2018 23:20:07
 
METAR
KBVU 
26nm W 
240555Z AUTO 00000KT 10SM CLR 24/M01 A2992 RMK AO2
KLSV 
35nm W 
240558Z AUTO 15010KT 10SM CLR 28/01 A2987 RMK AO2 SLP092 T02780005 10321 20277 52018
KHND 
39nm W 
240556Z AUTO 17005KT 10SM CLR 24/M01 A2993 RMK AO2 SLP112 T02441006 10317 20244 51021 $
KLAS 
40nm W 
240556Z 18005KT 10SM CLR 28/00 A2989 RMK AO2 SLP096 T02780000 10328 20278 51019
KVGT 
43nm W 
240553Z AUTO 20009KT 10SM CLR 28/M01 A2989 RMK AO2 SLP112 T02781011 10322 20278 51018
TAF
KLSV 
35nm W 
232302Z 2323/2505 16009KT 9999 SKC QNH2981INS BECMG 2404/2405 13009KT 9999 SKC QNH2989INS BECMG 2419/2420 16012G18KT 9999 SKC QNH2987INS TX33/2423Z TN23/2412Z
KHND 
39nm W 
240520Z 2406/2506 20011KT P6SM SKC FM241400 VRB06KT P6SM SKC FM241800 14007KT P6SM SKC FM242100 16012G21KT P6SM SKC FM250400 19012KT P6SM SKC
KLAS 
40nm W 
240520Z 2406/2512 20009KT P6SM SKC FM241200 VRB05KT P6SM SKC FM241600 07007KT P6SM SKC FM241900 15009KT P6SM SKC FM242300 16011G20KT P6SM SKC FM250400 19012KT P6SM SKC
KVGT 
43nm W 
240520Z 2406/2506 VRB05KT P6SM SKC FM241500 11007KT P6SM SKC FM242100 14010G19KT P6SM SKC FM250400 19011KT P6SM SKC
NOTAMs
Click for the latest NOTAMs
NOTAMs are issued by the DoD/FAA and will open in a separate window not controlled by AirNav.

 

 
 

Would you like to see your business listed on this page?

 If your business provides an interesting product or service to pilots, flight crews, aircraft, or users of the Temple Bar Airport, you should consider listing it here.  To start the listing process, click on the button below
 
Add a business
 

Other Pages about Temple Bar Airport

Update a link
 
Copyright © AirNav, LLC. All rights reserved. Privacy Policy  Contact